Location: Biltmore Gardens
(41.6070°N, 83.4666°W)
Time: 09:14:42
(UTC+00:00)

Cosmos 2344 - Pass Details

Date: 26 October 2020
Orbit: 1246 x 2997 km, 63.3° (Epoch: 03 December)

Event Time Altitude Azimuth Distance (km) Brightness Sun altitude
Exits shadow 07:16:53 19° 73° (ENE) 2,623 5.5 -51.1°
Drops below altitude 10° 07:19:27 10° 56° (ENE) 3,275 6.2 -50.8°
Sets 07:22:49 0° 45° (NE) 4,346 7.0 -50.3°
